星链-6373 (STARLINK-6373 )

导读

STARLINK-6373是美国太空探索技术公司星链星座的卫星,于2023年7月16日发射入轨,属于星链互联网星座组网卫星。星链旨在构建全球卫星互联网,为偏远地区等提供宽带接入服务,该卫星加入后进一步扩充了星链低轨星座的规模,提升星座覆盖与服务能力。

基本信息
目录编号:
57345
目录名称:
STARLINK-6373
国际标识:
2023-099T
轨道中心:
EARTH
卫星名称:
星链-6373
卫星全名:
星链-6373 (STARLINK-6373 )
卫星状态:
在轨 (已飞行1153 天)
发射日期:
2023-07-16 UTC
国别 :
美国 (US)
星等 :
--
该卫星已列入 空间交会检测服务 Space Conjunction Data Service (SCDS) ,当前飞行风险评估等级: 无高风险
轨道信息
数据来源 国际轨道数据 AOE轨道数据
星历时间 2026-09-09T11:20:20+0800
2天前
查看轨道信息
2026-09-06T07:00:00+0800
5天前
查看轨道信息
半长轴 6861.187km 6861.204km
偏心率 0.0001808 0.000187
轨道倾角 43.005° 43.004°
近地点辐角 275.778° 257.585°
升交点赤经 299.699° 317.664°
平近点角 84.287° 229.914°
近地点 481.809km 481.783km
远地点 484.291km 484.351km
周期 94.267分钟 94.267分钟
每日圈数 15.275799 15.275742
详细信息
固有亮度:
5
最大亮度:
2.5
卫星平台:
Starlink v1.5
覆盖范围:
全球
运营商:
太空探索技术公司
运营商所在国:
美国
制造商(研发单位):
太空探索技术公司
制造商所在国:
美国
使用方式:
暂无
卫星简介
星链(Starlink)计划是由太空探索技术公司(SpaceX)提出的一个巨型低轨卫星互联网星座项目,计划在2019年至2024年间在太空搭建由约1.2万颗卫星组成的“星链”网络,其中1584颗将部署在地球上空550千米处的近地轨道,并从2020年开始工作。该卫星仍在工作。
2D轨道图
3D轨道图
轨道高度分析图
轨道倾角分析图
轨道综合分析图
查看轨道综合分析图
与全量物体交会距离演化趋势
与全量物体交会风险概率演化趋势